カタログに戻る

SL-16 DEB

運用中LEO
NORAD 22351·DEBRIS·🇷🇺 Russia

打ち上げ Dec 25, 1992 から Baikonur Cosmodrome

Loading…

次のパス (今後24時間)

TLE

最新Source: Space-Track

元期: Sep 14, 2026, 12:12 UTC

1 22351U 92093AQ  26257.50865666  .00000240  00000-0  17297-3 0  9995
2 22351  70.9052  85.1750 0104517 321.2305  68.5798 14.04117372722215

AllMySatでSL-16 DEBをリアルタイム追跡

Download on the App Store